Weather in Kaluzhskaya

Russia / Krasnodar Krai     44°45′42″N   38°58′43″E
temp.,
°C
wind,
m/s
gust,
m/s
humid.,
%
clouds,
%
prec.,
mm/h
press.,
hPa
HPBL,
m
25 may, wed
wed2500:00+8sw339254 0.0 101638
03:00+8ssw32920 0.0 101735
06:00+9ssw23923 0.0 101851
09:00+17wsw23565 0.1 1019864
12:00+19wnw354854 0.0 10191859
15:00+18wnw345986 0.1 10201090
18:00+16wsw2471100 0.0 1020149
21:00+14sw226675 0.0 102133
26 may, thu
thu2600:00+10sw11855 0.0 102211
03:00+9s22876 0.0 102213
06:00+10s22835 0.0 102248
09:00+18ssw12560 0.0 1022755
12:00+21n23425 0.0 10211986
15:00+22nw234497 0.0 10201801
18:00+19sw355762 0.0 1019350
21:00+12ssw2272100 0.0 102025
27 may, fri
fri2700:00+11sw2274100 0.0 102017
03:00+10ssw2272100 0.0 102016
06:00+13sw226580 0.0 102032
09:00+19wsw234982 0.0 1020680
12:00+20nw344860 0.0 10201125
15:00+22nw344817 0.0 10191571
18:00+21nw24650 0.0 1018476
21:00+14sw22802 0.0 101911
28 may, sat
sat2800:00+12s11770 0.0 101910
03:00+11sse22790 0.0 101813
06:00+12sse11855 0.0 101731
09:00+20e12614 0.0 1016518
12:00+24nne33480 0.0 10151318
15:00+24nne43535 0.0 1014879
18:00+23nne24680 0.0 1014372
21:00+17ene11870 0.0 101411
29 may, sun
sun2900:00+15nw11920 0.0 101311
03:00+13w11940 0.0 101417
06:00+15wsw11910 0.0 101423
09:00+22nw22680 0.0 1014393
12:00+26nnw22550 0.0 1014994
15:00+27n33490 0.0 10141129
18:00+26ene23670 0.0 1014241
21:00+20wnw11830 0.0 101513